CZ-6A DEB, 58202

Orbit data source: Space-Track

CZ-6A DEB, 58202 is space debris in SSO originally from a launch on Tue, 31 Oct 2023 UTC launched from the Taiyaun Space Center, China (TSC). Debris objects in space refer to the collection of defunct objects orbiting the Earth. Examples of debris include non-operational satellites, rocket bodies, and fragments generated from explosions, collisions, or faulty payload assembly.

Loading next visibility...
Identifier
58202, 2023-168D
Orbit
SSO
Country
Flag of CNCN / PRC
Related business
Manufacturer
SAST
Mission
Spacecraft
Bus & Motor
Unknown
Mass
~50 kg wet, ~50 kg dry
Launch date (UTC)
2023-10-31 (3 years ago)
Launch vehicle
Unknown
Launch site
Taiyaun Space Center, China (TSC)
Object type
Payload
Rocket body
Debris
Shape & HBR
Cone, 0.3 m
Radar Cross Section
0.159 m², Large (>1 m²)

Expand to show TLE details & history
Last TLE update: 2 days ago

TLE from 2 days ago
0 CZ-6A DEB
1 58202U 23168D   26171.33778345  .00036897  00000-0  10557-2 0  9997
2 58202  97.7660 205.9272 0002498 176.3752 183.7509 15.35864399144921
Epoch: 2026-06-20T08:06Z
TLE epoch observation values (Epoch: 2026-06-20T08:06:24.490Z)
Latitude
-0.00002°
Longitude
175.77131°
Altitude
463.16 km
Speed
7.634 km/s
True Right ascension
13h 43m 42s
True Declination
0° 00' 00"
Sunlit
Object was in full shadow at epoch
Visualization orbit readout
Latitude
Unknown
Longitude
Unknown
Altitude
Unknown
Speed
Unknown
Apparent Right ascension
Unknown
Apparent Declination
Unknown
Sunlit
N/A
Visualization observer readout
Local Sidereal Time
21:40:11
Azimuth
Unknown
Elevation
Unknown
Doppler factor
Unknown
Orbital elements
Apogee altitude
457.022 km
Perigee altitude
453.608 km
Semi-major axis
6,833.452 km
Eccentricity
0.00025
Inclination
97.766°
RAAN
205.9272°
Arg. of periapsis
176.3752°
True anomaly
183.74903°
Mean anomaly
183.7509°
Eccentric anomaly
183.74996°
Mean motion
3.84223 °/min
Orbital period
93.7 mins
BSTAR
0.0010557
Loading maneuver chart data...
Computing Atmospheric mass density...
Loading historical data...
Loading historical data...
Loading historical data...
Loading historical data...
Loading historical data...
Loading historical data...
Loading historical data...
Other satellites on launch #168 in the year 2023 (2023-10-31 UTC)

Documentation

Showing up to 5 results
|